TimePST,TemperatureF,Dew PointF,Humidity,Sea Level PressureIn,VisibilityMPH,Wind Direction,Wind SpeedMPH,Gust SpeedMPH,PrecipitationIn,Events,Conditions,WindDirDegrees,DateUTC
12:56 AM,46.9,41.0,80,30.07,10.0,SE,5.8,-,0.00,,Overcast,140,2012-12-16 08:56:00
1:56 AM,48.0,41.0,77,30.08,10.0,ESE,8.1,-,N/A,,Mostly Cloudy,120,2012-12-16 09:56:00
2:56 AM,48.0,39.9,74,30.07,10.0,SE,6.9,-,N/A,,Mostly Cloudy,130,2012-12-16 10:56:00
3:56 AM,48.0,41.0,77,30.06,10.0,SE,3.5,-,N/A,,Overcast,130,2012-12-16 11:56:00
4:56 AM,46.9,42.1,83,30.07,10.0,Calm,Calm,-,N/A,,Overcast,0,2012-12-16 12:56:00
5:56 AM,46.0,43.0,89,30.08,10.0,West,3.5,-,N/A,,Overcast,270,2012-12-16 13:56:00
6:56 AM,46.0,43.0,89,30.10,10.0,Calm,Calm,-,N/A,,Overcast,0,2012-12-16 14:56:00
7:56 AM,45.0,43.0,93,30.10,10.0,Calm,Calm,-,N/A,,Clear,0,2012-12-16 15:56:00
8:56 AM,48.9,44.1,83,30.12,10.0,Calm,Calm,-,N/A,,Scattered Clouds,0,2012-12-16 16:56:00
9:56 AM,51.1,44.1,77,30.13,10.0,SSE,3.5,-,N/A,,Overcast,150,2012-12-16 17:56:00
10:56 AM,55.0,44.1,67,30.11,10.0,SE,4.6,-,N/A,,Overcast,140,2012-12-16 18:56:00
11:56 AM,57.9,46.9,67,30.10,10.0,ESE,5.8,-,N/A,,Overcast,120,2012-12-16 19:56:00
12:56 PM,57.9,46.9,67,30.08,10.0,SSE,8.1,-,N/A,,Overcast,160,2012-12-16 20:56:00
1:56 PM,57.9,46.9,67,30.07,10.0,South,6.9,-,N/A,,Overcast,170,2012-12-16 21:56:00
2:56 PM,57.0,48.0,72,30.05,10.0,SE,10.4,-,N/A,,Overcast,140,2012-12-16 22:56:00
3:56 PM,57.9,48.9,72,30.05,10.0,SE,8.1,-,N/A,,Overcast,140,2012-12-16 23:56:00
4:53 PM,57.2,48.2,72,30.05,10.0,SE,8.1,-,N/A,,Overcast,130,2012-12-17 00:53:00
4:56 PM,57.0,48.0,72,30.05,10.0,SSE,5.8,-,N/A,,Overcast,150,2012-12-17 00:56:00
5:11 PM,57.2,48.2,72,30.05,10.0,SSE,5.8,-,N/A,,Overcast,160,2012-12-17 01:11:00
5:56 PM,57.0,48.9,74,30.06,10.0,SE,6.9,-,N/A,,Overcast,140,2012-12-17 01:56:00
6:56 PM,57.0,50.0,77,30.07,10.0,ESE,6.9,-,N/A,,Overcast,120,2012-12-17 02:56:00
7:56 PM,57.0,50.0,77,30.06,10.0,SE,10.4,-,N/A,,Overcast,140,2012-12-17 03:56:00
8:56 PM,57.0,50.0,77,30.07,10.0,SSE,8.1,-,N/A,,Overcast,150,2012-12-17 04:56:00
9:56 PM,57.0,51.1,81,30.08,10.0,SSE,5.8,-,0.00,,Overcast,150,2012-12-17 05:56:00
10:56 PM,57.0,50.0,77,30.07,10.0,South,6.9,-,N/A,,Mostly Cloudy,180,2012-12-17 06:56:00
11:56 PM,57.0,48.9,74,30.07,10.0,SSE,5.8,-,N/A,,Overcast,150,2012-12-17 07:56:00